Location: Mapua
(41.2500°S, 173.1000°E)
Time: 06:53:27
(UTC+12:00)

Tiangong 2 - Visible Passes

Search period start: 26 June 2017 00:00
Search period end: 06 July 2017 00:00
Orbit: 391 x 396 km, 42.8° (Epoch: 25 June)

Date Brightness Start Highest point End Pass type
(mag) Time Alt. Az. Time Alt. Az. Time Alt. Az.
26 Jun 2.4 17:33:12 10° NW 17:36:10 33° NNE 17:39:10 10° E visible
26 Jun 2.1 19:09:43 10° W 19:12:10 47° W 19:12:10 47° W visible
27 Jun 1.1 18:13:04 10° WNW 18:16:20 82° NNE 18:18:11 24° ESE visible
27 Jun 4.4 19:50:08 10° W 19:50:35 13° W 19:50:35 13° W visible
28 Jun 1.2 18:53:25 10° W 18:56:36 65° SSW 18:56:36 65° SSW visible
29 Jun 1.2 17:56:42 10° W 17:59:59 74° S 18:02:37 15° ESE visible
29 Jun 3.7 19:33:47 10° WSW 19:35:01 21° WSW 19:35:01 21° WSW visible
30 Jun 1.2 18:37:06 10° W 18:40:22 65° S 18:41:03 48° ESE visible
01 Jul 1.3 17:40:22 10° W 17:43:38 64° S 17:46:54 10° E visible
01 Jul 2.6 19:17:24 10° WSW 19:19:33 37° W 19:19:33 37° W visible
02 Jul 1.1 18:20:42 10° WSW 18:24:00 77° S 18:25:42 26° E visible
02 Jul 4.6 19:57:49 10° W 19:58:07 12° W 19:58:07 12° W visible
03 Jul 1.7 19:01:00 10° W 19:04:13 52° NNW 19:04:22 51° N visible
04 Jul 1.3 18:04:16 10° WSW 18:07:32 76° NNW 18:10:46 10° ENE visible
04 Jul 4.0 19:41:47 10° W 19:43:11 17° WNW 19:43:11 17° WNW visible
05 Jul 3.0 18:44:42 10° W 18:47:37 29° NNW 18:49:47 15° NNE visible
